Crookston, MN

8:54 PM CDT on May 22, 2018 (GMT -0500)
Crookston Municipal-Kirkwood

Weather History for KCKN - November, 2012

Change the Weather History Date:

Tuesday, November 27, 2012

  Actual Average Record
Temperature  
Mean Temperature 18 °F -  
Max Temperature 23 °F 27 °F 51 °F (2017)
Min Temperature 12 °F 13 °F -14 °F (2014)
Degree Days  
Heating Degree Days 48    
Moisture  
Dew Point 15 °F    
Average Humidity 84    
Maximum Humidity 93    
Minimum Humidity 79    
Precipitation  
Precipitation 0.00 in - - ()
Sea Level Pressure  
Sea Level Pressure 30.16 in    
Wind  
Wind Speed 7 mph (NNW)    
Max Wind Speed 13 mph    
Max Gust Speed -    
Visibility 10 miles    
Events Snow    
Averages and records for this station are not official NWS values.
T = Trace of Precipitation, MM = Missing Value Source: NWS Daily Summary

Daily Weather History Graph

Daily Weather History Graph

Search for Another Location

Airport or City:

Astronomy

Nov. 27, 2012 Rise Set
Actual Time 7:50 AM CST 4:38 PM CST
Civil Twilight 7:15 AM CST 5:13 PM CST
Nautical Twilight 6:36 AM CST 5:51 PM CST
Astronomical Twilight 5:59 AM CST 6:28 PM CST
Moon 4:11 PM CST (11/27) 6:54 AM CST (11/27)
Length of Visible Light 9h 58m
Length of Day
8h 47m
Waxing Gibbous, 99% of the Moon is Illuminated
Nov 27
Waxing Gibbous
Nov 28
Full
Dec 6
Last Quarter
Dec 13
New
Dec 19
First Quarter

Hourly Weather History & Observations

Time (CST) Temp. Windchill Dew Point Humidity Pressure Visibility Wind Dir Wind Speed Gust Speed Precip Events Conditions
12:14 AM 21.2 °F 10.1 °F 17.6 °F 86% 30.15 in 10.0 mi SSW 10.4 mph - N/A   Clear
12:35 AM 21.2 °F 10.1 °F 17.6 °F 86% 30.14 in 10.0 mi SSW 10.4 mph - N/A   Clear
12:55 AM 21.2 °F 10.1 °F 17.6 °F 86% 30.14 in 10.0 mi SSW 10.4 mph - N/A   Clear
1:14 AM 21.2 °F 10.1 °F 17.6 °F 86% 30.13 in 10.0 mi SSW 10.4 mph - N/A   Clear
1:35 AM 21.2 °F 11.7 °F 17.6 °F 86% 30.13 in 10.0 mi SW 8.1 mph - N/A   Clear
1:55 AM 21.2 °F 10.9 °F 17.6 °F 86% 30.13 in 10.0 mi SW 9.2 mph - N/A   Clear
2:14 AM 21.2 °F 11.7 °F 17.6 °F 86% 30.13 in 10.0 mi SSW 8.1 mph - N/A   Clear
2:35 AM 23.0 °F 13.9 °F 17.6 °F 80% 30.12 in 10.0 mi SSW 8.1 mph - N/A   Clear
2:54 AM 23.0 °F 13.9 °F 19.4 °F 86% 30.12 in 10.0 mi SSW 8.1 mph - N/A   Clear
3:14 AM 23.0 °F 15.8 °F 19.4 °F 86% 30.11 in 10.0 mi SSW 5.8 mph - N/A   Clear
3:35 AM 21.2 °F 10.9 °F 17.6 °F 86% 30.11 in 10.0 mi SSW 9.2 mph - N/A   Clear
3:54 AM 21.2 °F 11.7 °F 17.6 °F 86% 30.10 in 10.0 mi SSW 8.1 mph - N/A   Clear
4:14 AM 23.0 °F 14.7 °F 19.4 °F 86% 30.10 in 10.0 mi SW 6.9 mph - N/A   Clear
4:35 AM 23.0 °F 15.8 °F 19.4 °F 86% 30.10 in 10.0 mi SSW 5.8 mph - N/A   Clear
4:54 AM 23.0 °F 18.4 °F 19.4 °F 86% 30.09 in 10.0 mi SSW 3.5 mph - N/A   Clear
5:14 AM 23.0 °F 17.0 °F 19.4 °F 86% 30.10 in 10.0 mi SSW 4.6 mph - N/A   Clear
5:35 AM 23.0 °F 15.8 °F 19.4 °F 86% 30.09 in 10.0 mi SW 5.8 mph - N/A   Clear
6:35 AM 23.0 °F - 19.4 °F 86% 30.09 in 10.0 mi Calm Calm - N/A   Clear
6:54 AM 23.0 °F - 19.4 °F 86% 30.09 in 10.0 mi Calm Calm - N/A   Clear
7:15 AM 23.0 °F - 19.4 °F 86% 30.10 in 10.0 mi Calm Calm - N/A   Clear
7:35 AM 23.0 °F 12.4 °F 19.4 °F 86% 30.10 in 10.0 mi North 10.4 mph - N/A   Clear
7:54 AM 21.2 °F 10.9 °F 19.4 °F 93% 30.10 in 10.0 mi NNE 9.2 mph - N/A   Clear
8:15 AM 21.2 °F 10.1 °F 17.6 °F 86% 30.11 in 10.0 mi North 10.4 mph - N/A   Clear
8:35 AM 21.2 °F 8.9 °F 17.6 °F 86% 30.12 in 10.0 mi North 12.7 mph - N/A   Clear
8:54 AM 21.2 °F 9.5 °F 17.6 °F 86% 30.12 in 10.0 mi North 11.5 mph - N/A   Clear
9:15 AM 21.2 °F 9.5 °F 17.6 °F 86% 30.12 in 10.0 mi North 11.5 mph - N/A   Clear
9:34 AM 21.2 °F 12.6 °F 17.6 °F 86% 30.12 in 10.0 mi North 6.9 mph - N/A   Clear
9:54 AM 21.2 °F 10.1 °F 15.8 °F 80% 30.13 in 10.0 mi North 10.4 mph - N/A   Clear
10:15 AM 19.4 °F 7.9 °F 15.8 °F 86% 30.14 in 10.0 mi North 10.4 mph - N/A   Clear
10:34 AM 19.4 °F 7.9 °F 15.8 °F 86% 30.14 in 10.0 mi North 10.4 mph - N/A   Clear
10:54 AM 21.2 °F 10.1 °F 15.8 °F 80% 30.15 in 10.0 mi North 10.4 mph - N/A   Clear
11:15 AM 21.2 °F 10.9 °F 15.8 °F 80% 30.15 in 10.0 mi North 9.2 mph - N/A   Clear
11:34 AM 21.2 °F 9.5 °F 15.8 °F 80% 30.15 in 10.0 mi North 11.5 mph - N/A   Clear
11:54 AM 19.4 °F 8.6 °F 15.8 °F 86% 30.15 in 1.5 mi North 9.2 mph - N/A Snow Light Snow
12:15 PM 19.4 °F 8.6 °F 15.8 °F 86% 30.14 in 2.5 mi North 9.2 mph - N/A Snow Light Snow
12:34 PM 19.4 °F 9.5 °F 15.8 °F 86% 30.14 in 7.0 mi NNW 8.1 mph - N/A Snow Light Snow
12:54 PM 19.4 °F 8.6 °F 15.8 °F 86% 30.15 in 10.0 mi North 9.2 mph - N/A   Clear
1:15 PM 17.6 °F 5.7 °F 14.0 °F 86% 30.15 in 10.0 mi NNW 10.4 mph - N/A   Clear
1:34 PM 17.6 °F 7.3 °F 15.8 °F 93% 30.15 in 10.0 mi NNW 8.1 mph - N/A   Clear
1:54 PM 17.6 °F 5.7 °F 14.0 °F 86% 30.15 in 10.0 mi North 10.4 mph - N/A   Clear
2:14 PM 17.6 °F 6.4 °F 14.0 °F 86% 30.16 in 10.0 mi North 9.2 mph - N/A   Clear
2:35 PM 17.6 °F 5.7 °F 14.0 °F 86% 30.16 in 10.0 mi NNW 10.4 mph - N/A   Clear
2:55 PM 17.6 °F 6.4 °F 14.0 °F 86% 30.16 in 10.0 mi North 9.2 mph - N/A   Clear
3:14 PM 17.6 °F 6.4 °F 14.0 °F 86% 30.17 in 10.0 mi North 9.2 mph - N/A Snow Light Snow
3:35 PM 17.6 °F 9.3 °F 12.2 °F 79% 30.18 in 7.0 mi North 5.8 mph - N/A Snow Light Snow
3:55 PM 15.8 °F 8.6 °F 12.2 °F 86% 30.18 in 10.0 mi North 4.6 mph - N/A   Clear
4:14 PM 14.0 °F 5.1 °F 10.4 °F 86% 30.18 in 10.0 mi North 5.8 mph - N/A   Clear
4:35 PM 14.0 °F 8.2 °F 10.4 °F 86% 30.19 in 10.0 mi NNE 3.5 mph - N/A   Unknown
4:55 PM 12.2 °F - 10.4 °F 92% 30.20 in 10.0 mi Calm Calm - N/A   Mostly Cloudy
5:14 PM 15.8 °F - 10.4 °F 79% 30.20 in 10.0 mi Calm Calm - N/A   Overcast
5:54 PM 14.0 °F 5.1 °F 10.4 °F 86% 30.21 in 10.0 mi North 5.8 mph - N/A   Mostly Cloudy
6:14 PM 12.2 °F 4.3 °F 8.6 °F 85% 30.22 in 10.0 mi NNE 4.6 mph - N/A   Scattered Clouds
6:35 PM 12.2 °F - 8.6 °F 85% 30.22 in 10.0 mi Calm Calm - N/A   Overcast
6:54 PM 12.2 °F - 8.6 °F 85% 30.22 in 10.0 mi Calm Calm - N/A   Overcast
7:14 PM 12.2 °F - 8.6 °F 85% 30.23 in 10.0 mi Calm Calm - N/A   Overcast
7:35 PM 12.2 °F - 8.6 °F 85% 30.23 in 10.0 mi Calm Calm - N/A   Overcast
7:54 PM 14.0 °F 6.5 °F 8.6 °F 79% 30.23 in 10.0 mi NNE 4.6 mph - N/A   Overcast
8:14 PM 14.0 °F - 8.6 °F 79% 30.24 in 10.0 mi Calm Calm - N/A   Overcast
8:35 PM 14.0 °F - 8.6 °F 79% 30.25 in 10.0 mi Calm Calm - N/A   Overcast
8:54 PM 14.0 °F - 8.6 °F 79% 30.25 in 10.0 mi Calm Calm - N/A   Overcast
9:14 PM 14.0 °F - 8.6 °F 79% 30.26 in 10.0 mi Calm Calm - N/A   Overcast
9:35 PM 14.0 °F - 8.6 °F 79% 30.26 in 10.0 mi Calm Calm - N/A   Overcast
9:54 PM 14.0 °F - 8.6 °F 79% 30.27 in 10.0 mi Calm Calm - N/A   Overcast
10:14 PM 15.8 °F - 10.4 °F 79% 30.27 in 10.0 mi Calm Calm - N/A   Overcast
10:54 PM 15.8 °F - 10.4 °F 79% 30.27 in 10.0 mi Calm Calm - N/A   Overcast
11:15 PM 15.8 °F 8.6 °F 10.4 °F 79% 30.27 in 10.0 mi NW 4.6 mph - N/A   Overcast
11:54 PM 15.8 °F 6.1 °F 10.4 °F 79% 30.27 in 10.0 mi NW 6.9 mph - N/A   Overcast